Wheaton, MN

2:02 PM CDT on September 27, 2016 (GMT -0500)
Wheaton Municipal

Weather History for KETH - January, 2014

Change the Weather History Date:

Monday, January 6, 2014

  Actual Average Record
Temperature  
Mean Temperature -12 °F -  
Max Temperature -5 °F 19 °F 45 °F (1961)
Min Temperature -18 °F 1 °F -23 °F (1968)
Degree Days  
Heating Degree Days 76    
Moisture  
Dew Point -22 °F    
Average Humidity 66    
Maximum Humidity 77    
Minimum Humidity 58    
Precipitation  
Precipitation 0.00 in - - ()
Sea Level Pressure  
Sea Level Pressure 30.32 in    
Wind  
Wind Speed 14 mph (WNW)    
Max Wind Speed 20 mph    
Max Gust Speed 26 mph    
Visibility 10 miles    
Events      
Averages and records for this station are not official NWS values.
T = Trace of Precipitation, MM = Missing Value Source: NWS Daily Summary

Daily Weather History Graph

Daily Weather History Graph

Search for Another Location

Airport or City:

Trip Planner

Search our weather history database for the weather conditions in past years. The results will help you decide how hot, cold, wet, or windy it might be!

Date:

Astronomy

Jan. 06, 2014 Rise Set
Actual Time 8:06 AM CST 4:57 PM CST
Civil Twilight 7:32 AM CST 5:31 PM CST
Nautical Twilight 6:55 AM CST 6:08 PM CST
Astronomical Twilight 6:19 AM CST 6:45 PM CST
Moon 11:02 AM CST (1/6) 11:54 PM CST (1/6)
Length of Visible Light 9h 58m
Length of Day
8h 50m
Waxing Crescent, 35% of the Moon is Illuminated
Jan 6
Waxing Crescent
Jan 7
First Quarter
Jan 15
Full
Jan 23
Last Quarter
Jan 30
New

Hourly Weather History & Observations

Time (CST) Temp. Windchill Dew Point Humidity Pressure Visibility Wind Dir Wind Speed Gust Speed Precip Events Conditions
12:14 AM -18.4 °F -42.9 °F -25.6 °F 70% 30.41 in 10.0 mi WNW 15.0 mph 21.9 mph N/A   Clear
12:34 AM -18.4 °F -43.7 °F -25.6 °F 70% 30.41 in 10.0 mi WNW 16.1 mph 24.2 mph N/A   Clear
12:54 AM -18.4 °F -45.2 °F -25.6 °F 70% 30.40 in 10.0 mi WNW 18.4 mph 24.2 mph N/A   Clear
1:14 AM -18.4 °F -44.5 °F -25.6 °F 70% 30.40 in 10.0 mi WNW 17.3 mph 24.2 mph N/A   Clear
1:34 AM -18.4 °F -43.7 °F -25.6 °F 70% 30.40 in 10.0 mi WNW 16.1 mph 21.9 mph N/A   Clear
1:54 AM -18.4 °F -43.7 °F -25.6 °F 70% 30.40 in 10.0 mi WNW 16.1 mph 21.9 mph N/A   Clear
2:14 AM -18.4 °F -42.9 °F -27.4 °F 63% 30.40 in 10.0 mi WNW 15.0 mph - N/A   Clear
2:34 AM -18.4 °F -43.7 °F -27.4 °F 63% 30.40 in 10.0 mi WNW 16.1 mph 23.0 mph N/A   Clear
2:54 AM -18.4 °F -44.5 °F -27.4 °F 63% 30.41 in 10.0 mi WNW 17.3 mph - N/A   Clear
3:14 AM -18.4 °F -42.9 °F -27.4 °F 63% 30.41 in 10.0 mi WNW 15.0 mph 21.9 mph N/A   Clear
3:34 AM -18.4 °F -41.2 °F -27.4 °F 63% 30.41 in 10.0 mi WNW 12.7 mph - N/A   Clear
3:54 AM -18.4 °F -42.9 °F -27.4 °F 63% 30.40 in 10.0 mi WNW 15.0 mph - N/A   Clear
4:14 AM -18.4 °F -42.1 °F -27.4 °F 63% 30.40 in 10.0 mi WNW 13.8 mph - N/A   Clear
4:34 AM -18.4 °F -42.9 °F -27.4 °F 63% 30.40 in 10.0 mi WNW 15.0 mph - N/A   Clear
4:54 AM -18.4 °F -43.7 °F -27.4 °F 63% 30.40 in 10.0 mi WNW 16.1 mph 19.6 mph N/A   Clear
5:14 AM -18.4 °F -41.2 °F -27.4 °F 63% 30.39 in 10.0 mi WNW 12.7 mph - N/A   Clear
5:34 AM -18.4 °F -41.2 °F -27.4 °F 63% 30.39 in 10.0 mi WNW 12.7 mph - N/A   Clear
5:54 AM -18.4 °F -41.2 °F -27.4 °F 63% 30.39 in 10.0 mi WNW 12.7 mph - N/A   Clear
6:14 AM -18.4 °F -42.9 °F -27.4 °F 63% 30.40 in 10.0 mi WNW 15.0 mph - N/A   Clear
6:34 AM -18.4 °F -42.9 °F -27.4 °F 63% 30.39 in 10.0 mi WNW 15.0 mph 19.6 mph N/A   Clear
6:54 AM -18.4 °F -42.9 °F -27.4 °F 63% 30.39 in 10.0 mi WNW 15.0 mph - N/A   Clear
7:14 AM -18.4 °F -41.2 °F -27.4 °F 63% 30.39 in 10.0 mi WNW 12.7 mph 19.6 mph N/A   Clear
7:34 AM -18.4 °F -41.2 °F -27.4 °F 63% 30.38 in 10.0 mi WNW 12.7 mph - N/A   Clear
7:54 AM -18.4 °F -42.1 °F -27.4 °F 63% 30.38 in 10.0 mi WNW 13.8 mph - N/A   Clear
8:14 AM -18.4 °F -41.2 °F -27.4 °F 63% 30.38 in 10.0 mi WNW 12.7 mph 20.7 mph N/A   Clear
8:34 AM -18.4 °F -41.2 °F -27.4 °F 63% 30.38 in 10.0 mi WNW 12.7 mph 20.7 mph N/A   Clear
8:54 AM -18.4 °F -42.1 °F -27.4 °F 63% 30.39 in 10.0 mi WNW 13.8 mph 19.6 mph N/A   Clear
9:14 AM -18.4 °F -42.9 °F -27.4 °F 63% 30.39 in 10.0 mi WNW 15.0 mph 20.7 mph N/A   Clear
9:34 AM -18.4 °F -42.9 °F -27.4 °F 63% 30.39 in 10.0 mi WNW 15.0 mph 20.7 mph N/A   Clear
9:54 AM -18.4 °F -43.7 °F -25.6 °F 70% 30.38 in 10.0 mi WNW 16.1 mph - N/A   Clear
10:14 AM -16.6 °F -40.6 °F -25.6 °F 64% 30.38 in 10.0 mi WNW 15.0 mph - N/A   Clear
10:34 AM -16.6 °F -42.1 °F -25.6 °F 64% 30.37 in 10.0 mi WNW 17.3 mph 21.9 mph N/A   Clear
10:54 AM -16.6 °F -42.9 °F -25.6 °F 64% 30.36 in 10.0 mi WNW 18.4 mph 23.0 mph N/A   Clear
11:14 AM -14.8 °F -39.8 °F -25.6 °F 58% 30.35 in 10.0 mi WNW 17.3 mph - N/A   Clear
11:34 AM -14.8 °F -39.8 °F -23.8 °F 64% 30.34 in 10.0 mi WNW 17.3 mph - N/A   Clear
11:54 AM -14.8 °F -38.3 °F -23.8 °F 64% 30.33 in 10.0 mi WNW 15.0 mph 20.7 mph N/A   Clear
12:14 PM -13.0 °F -38.8 °F -23.8 °F 59% 30.33 in 10.0 mi WNW 19.6 mph 26.5 mph N/A   Clear
12:34 PM -13.0 °F -38.8 °F -23.8 °F 59% 30.32 in 10.0 mi WNW 19.6 mph 25.3 mph N/A   Clear
12:54 PM -13.0 °F -38.8 °F -22.0 °F 64% 30.31 in 10.0 mi WNW 19.6 mph 24.2 mph N/A   Clear
1:14 PM -11.2 °F -36.4 °F -20.2 °F 64% 30.30 in 10.0 mi WNW 19.6 mph - N/A   Clear
1:34 PM -11.2 °F -35.8 °F -20.2 °F 64% 30.29 in 10.0 mi WNW 18.4 mph - N/A   Clear
1:54 PM -9.4 °F -32.1 °F -18.4 °F 65% 30.29 in 10.0 mi West 16.1 mph 23.0 mph N/A   Clear
2:14 PM -9.4 °F -31.4 °F -18.4 °F 65% 30.29 in 10.0 mi WNW 15.0 mph 21.9 mph N/A   Clear
2:34 PM -9.4 °F -30.6 °F -18.4 °F 65% 30.29 in 10.0 mi WNW 13.8 mph - N/A   Clear
2:54 PM -9.4 °F -32.1 °F -18.4 °F 65% 30.29 in 10.0 mi WNW 16.1 mph - N/A   Clear
3:14 PM -9.4 °F -32.8 °F -18.4 °F 65% 30.28 in 10.0 mi WNW 17.3 mph 24.2 mph N/A   Clear
3:34 PM -7.6 °F -30.5 °F -16.6 °F 65% 30.28 in 10.0 mi WNW 17.3 mph 20.7 mph N/A   Clear
3:54 PM -7.6 °F -28.3 °F -16.6 °F 65% 30.28 in 10.0 mi WNW 13.8 mph - N/A   Mostly Cloudy
4:14 PM -7.6 °F -28.3 °F -16.6 °F 65% 30.27 in 10.0 mi WNW 13.8 mph - N/A   Mostly Cloudy
4:34 PM -7.6 °F -25.7 °F -16.6 °F 65% 30.28 in 10.0 mi WNW 10.4 mph - N/A   Scattered Clouds
4:54 PM -9.4 °F -26.8 °F -16.6 °F 71% 30.27 in 10.0 mi WNW 9.2 mph - N/A   Scattered Clouds
5:14 PM -9.4 °F -25.6 °F -14.8 °F 77% 30.27 in 7.0 mi WNW 8.1 mph - N/A   Mostly Cloudy
5:34 PM -9.4 °F -24.3 °F -16.6 °F 71% 30.26 in 10.0 mi WNW 6.9 mph - N/A   Scattered Clouds
5:54 PM -9.4 °F -22.7 °F -16.6 °F 71% 30.25 in 10.0 mi WNW 5.8 mph - N/A   Clear
6:14 PM -9.4 °F -22.7 °F -16.6 °F 71% 30.25 in 10.0 mi WNW 5.8 mph - N/A   Clear
6:34 PM -11.2 °F -24.8 °F -16.6 °F 77% 30.24 in 10.0 mi West 5.8 mph - N/A   Clear
6:54 PM -11.2 °F -24.8 °F -16.6 °F 77% 30.24 in 10.0 mi West 5.8 mph - N/A   Clear
7:14 PM -11.2 °F -23.0 °F -18.4 °F 70% 30.23 in 10.0 mi West 4.6 mph - N/A   Clear
7:34 PM -11.2 °F -24.8 °F -18.4 °F 70% 30.23 in 10.0 mi West 5.8 mph - N/A   Clear
7:54 PM -9.4 °F -20.9 °F -16.6 °F 71% 30.23 in 10.0 mi West 4.6 mph - N/A   Clear
8:14 PM -9.4 °F -22.7 °F -16.6 °F 71% 30.22 in 10.0 mi West 5.8 mph - N/A   Clear
8:34 PM -9.4 °F -20.9 °F -16.6 °F 71% 30.22 in 10.0 mi WNW 4.6 mph - N/A   Clear
8:54 PM -9.4 °F -25.6 °F -14.8 °F 77% 30.22 in 10.0 mi West 8.1 mph - N/A   Clear
9:14 PM -7.6 °F -23.4 °F -14.8 °F 71% 30.20 in 10.0 mi West 8.1 mph - N/A   Clear
9:34 PM -7.6 °F -22.1 °F -14.8 °F 71% 30.20 in 10.0 mi West 6.9 mph - N/A   Clear
9:54 PM -5.8 °F -22.4 °F -14.8 °F 65% 30.19 in 10.0 mi West 9.2 mph - N/A   Clear
10:14 PM -5.8 °F -19.9 °F -14.8 °F 65% 30.18 in 10.0 mi West 6.9 mph - N/A   Clear
10:34 PM -5.8 °F -19.9 °F -14.8 °F 65% 30.19 in 10.0 mi West 6.9 mph - N/A   Clear
10:54 PM -5.8 °F -16.7 °F -14.8 °F 65% 30.18 in 10.0 mi West 4.6 mph - N/A   Clear
11:14 PM -5.8 °F -14.5 °F -14.8 °F 65% 30.18 in 10.0 mi West 3.5 mph - N/A   Clear
11:34 PM -5.8 °F -14.5 °F -14.8 °F 65% 30.17 in 10.0 mi West 3.5 mph - N/A   Clear
11:54 PM -7.6 °F -18.8 °F -14.8 °F 71% 30.14 in 10.0 mi SSW 4.6 mph - N/A   Clear